Total_Precipitation_Accumulation
0.39 0.37 0.43 0.48 0.40 0.41 0.57 0.59 0.50 0.29 0.25 0.28 0.23 0.18 0.17 0.15 0.13 0.14 0.17 0.16 0.15 0.16 0.18 0.21 0.26 0.30 0.30 0.32 0.37 0.46 0.61 0.72 0.78 0.84 0.94 1.00 1.03 1.05 1.10 1.24 1.33 1.34 1.37 1.39
0.34 0.23 0.29 0.34 0.25 0.26 0.29 0.28 0.30 0.25 0.28 0.29 0.23 0.18 0.16 0.16 0.15 0.15 0.18 0.16 0.16 0.17 0.20 0.22 0.25 0.29 0.27 0.29 0.35 0.44 0.59 0.66 0.74 0.87 0.99 1.11 1.14 1.19 1.21 1.26 1.35 1.37 1.35 1.36
0.56 0.26 0.44 0.52 0.29 0.24 0.26 0.24 0.25 0.31 0.32 0.26 0.24 0.20 0.18 0.17 0.17 0.16 0.14 0.15 0.15 0.18 0.22 0.24 0.26 0.26 0.27 0.28 0.32 0.38 0.51 0.62 0.68 0.82 0.95 1.05 1.08 1.12 1.16 1.10 1.09 1.19 1.26 1.21
0.86 0.63 0.88 0.45 0.22 0.20 0.23 0.25 0.25 0.28 0.28 0.25 0.26 0.24 0.20 0.17 0.17 0.14 0.13 0.14 0.15 0.17 0.19 0.21 0.25 0.26 0.26 0.26 0.29 0.37 0.46 0.58 0.61 0.71 0.85 0.92 0.98 1.03 1.04 0.97 0.95 1.05 1.09 1.00
1.19 0.89 0.51 0.24 0.19 0.24 0.30 0.37 0.29 0.25 0.25 0.24 0.23 0.24 0.27 0.23 0.17 0.14 0.12 0.13 0.14 0.15 0.15 0.17 0.21 0.25 0.25 0.25 0.28 0.33 0.40 0.50 0.56 0.64 0.79 0.80 0.87 0.97 0.96 0.97 0.94 0.92 0.91 0.86
1.32 0.99 0.51 0.26 0.15 0.18 0.28 0.47 0.28 0.22 0.25 0.26 0.24 0.37 0.36 0.30 0.22 0.17 0.13 0.12 0.14 0.14 0.13 0.15 0.17 0.19 0.20 0.21 0.25 0.32 0.39 0.45 0.49 0.54 0.68 0.69 0.71 0.77 0.82 0.84 0.86 0.87 0.85 0.79
1.08 0.83 0.40 0.22 0.17 0.20 0.50 0.60 0.28 0.22 0.23 0.25 0.30 0.38 0.34 0.28 0.24 0.19 0.17 0.16 0.15 0.15 0.16 0.16 0.17 0.18 0.18 0.18 0.21 0.27 0.33 0.39 0.44 0.48 0.55 0.57 0.61 0.65 0.70 0.74 0.78 0.83 0.83 0.77
0.80 0.88 0.49 0.23 0.24 0.43 0.53 0.31 0.22 0.21 0.21 0.23 0.22 0.20 0.21 0.23 0.23 0.20 0.20 0.20 0.18 0.18 0.17 0.17 0.17 0.17 0.16 0.17 0.20 0.24 0.31 0.37 0.41 0.46 0.48 0.51 0.55 0.60 0.62 0.70 0.80 0.83 0.81 0.79
0.58 0.53 0.37 0.26 0.31 0.34 0.26 0.21 0.18 0.20 0.21 0.21 0.20 0.19 0.20 0.20 0.20 0.19 0.19 0.19 0.19 0.19 0.20 0.19 0.18 0.18 0.16 0.16 0.20 0.25 0.31 0.35 0.42 0.45 0.43 0.50 0.56 0.63 0.66 0.72 0.81 0.84 0.80 0.77
0.35 0.28 0.22 0.21 0.22 0.21 0.19 0.17 0.16 0.17 0.20 0.19 0.19 0.18 0.18 0.18 0.18 0.20 0.19 0.17 0.16 0.18 0.20 0.20 0.18 0.17 0.16 0.16 0.20 0.25 0.30 0.34 0.40 0.47 0.48 0.47 0.53 0.61 0.66 0.70 0.84 0.90 0.87 0.84
0.29 0.20 0.17 0.16 0.16 0.17 0.16 0.13 0.12 0.13 0.15 0.15 0.15 0.15 0.16 0.19 0.19 0.20 0.20 0.18 0.16 0.17 0.18 0.19 0.17 0.15 0.14 0.17 0.22 0.26 0.29 0.33 0.39 0.48 0.52 0.48 0.50 0.56 0.63 0.65 0.85 1.02 0.96 0.96
0.25 0.16 0.17 0.15 0.12 0.11 0.12 0.12 0.11 0.13 0.15 0.13 0.13 0.16 0.17 0.18 0.19 0.18 0.18 0.18 0.17 0.15 0.16 0.16 0.15 0.14 0.15 0.17 0.23 0.30 0.34 0.37 0.41 0.49 0.52 0.50 0.50 0.55 0.62 0.65 0.72 0.76 0.83 0.93
0.18 0.14 0.13 0.10 0.08 0.08 0.11 0.12 0.11 0.12 0.15 0.16 0.13 0.14 0.18 0.19 0.19 0.19 0.17 0.17 0.18 0.17 0.15 0.15 0.14 0.15 0.16 0.19 0.24 0.31 0.38 0.42 0.46 0.50 0.51 0.52 0.50 0.53 0.60 0.58 0.60 0.64 0.70 0.78
0.13 0.13 0.13 0.08 0.08 0.07 0.09 0.11 0.10 0.09 0.10 0.13 0.15 0.15 0.18 0.20 0.19 0.19 0.18 0.17 0.17 0.17 0.15 0.14 0.13 0.15 0.17 0.21 0.26 0.33 0.38 0.44 0.49 0.51 0.51 0.50 0.48 0.50 0.55 0.61 0.67 0.69 0.74 0.81
0.12 0.12 0.13 0.09 0.07 0.06 0.07 0.08 0.10 0.10 0.10 0.10 0.13 0.15 0.18 0.20 0.19 0.17 0.17 0.16 0.15 0.15 0.15 0.15 0.16 0.16 0.18 0.23 0.28 0.34 0.41 0.45 0.50 0.51 0.50 0.46 0.45 0.48 0.51 0.56 0.64 0.74 0.81 0.88
0.13 0.10 0.09 0.08 0.07 0.07 0.08 0.10 0.12 0.12 0.12 0.13 0.12 0.14 0.17 0.19 0.20 0.19 0.18 0.17 0.17 0.16 0.17 0.18 0.18 0.19 0.20 0.25 0.31 0.37 0.45 0.54 0.58 0.55 0.52 0.48 0.47 0.51 0.53 0.57 0.64 0.71 0.80 0.86
0.18 0.14 0.11 0.11 0.09 0.09 0.10 0.12 0.14 0.14 0.13 0.13 0.14 0.14 0.16 0.19 0.21 0.20 0.19 0.19 0.20 0.19 0.18 0.19 0.21 0.22 0.23 0.28 0.36 0.44 0.49 0.53 0.59 0.58 0.56 0.55 0.57 0.58 0.59 0.63 0.68 0.71 0.75 0.85
0.18 0.17 0.15 0.15 0.14 0.14 0.12 0.11 0.12 0.13 0.14 0.15 0.15 0.16 0.18 0.21 0.25 0.25 0.24 0.23 0.22 0.20 0.20 0.22 0.26 0.27 0.26 0.32 0.41 0.47 0.52 0.54 0.53 0.56 0.60 0.64 0.67 0.65 0.66 0.68 0.69 0.73 0.75 0.80
0.13 0.14 0.13 0.12 0.14 0.15 0.14 0.13 0.12 0.12 0.13 0.14 0.16 0.17 0.20 0.24 0.28 0.31 0.28 0.26 0.25 0.24 0.26 0.28 0.34 0.32 0.32 0.40 0.49 0.52 0.56 0.59 0.58 0.58 0.62 0.70 0.69 0.63 0.66 0.69 0.73 0.77 0.77 0.79
0.12 0.13 0.14 0.13 0.13 0.14 0.15 0.13 0.12 0.12 0.14 0.15 0.17 0.18 0.19 0.22 0.27 0.31 0.31 0.29 0.29 0.32 0.33 0.36 0.36 0.35 0.39 0.49 0.60 0.59 0.58 0.59 0.61 0.64 0.67 0.68 0.68 0.68 0.69 0.71 0.78 0.84 0.83 0.81
0.15 0.16 0.17 0.16 0.15 0.13 0.14 0.14 0.14 0.15 0.17 0.19 0.23 0.25 0.26 0.27 0.29 0.33 0.34 0.33 0.32 0.35 0.38 0.40 0.41 0.46 0.54 0.62 0.64 0.58 0.58 0.59 0.62 0.69 0.73 0.72 0.73 0.73 0.73 0.75 0.80 0.85 0.86 0.84
0.19 0.21 0.21 0.20 0.19 0.18 0.17 0.18 0.19 0.20 0.20 0.22 0.25 0.29 0.31 0.32 0.34 0.35 0.36 0.39 0.41 0.45 0.42 0.38 0.42 0.54 0.67 0.67 0.59 0.56 0.57 0.59 0.64 0.72 0.78 0.78 0.79 0.80 0.77 0.79 0.85 0.86 0.84 0.84
0.23 0.24 0.25 0.26 0.27 0.26 0.24 0.25 0.26 0.27 0.29 0.30 0.33 0.35 0.37 0.39 0.41 0.43 0.42 0.40 0.42 0.45 0.43 0.41 0.46 0.57 0.65 0.59 0.54 0.55 0.56 0.60 0.66 0.75 0.80 0.82 0.84 0.85 0.85 0.86 0.89 0.91 0.90 0.86
0.26 0.28 0.30 0.31 0.31 0.30 0.29 0.30 0.30 0.32 0.35 0.37 0.39 0.41 0.42 0.42 0.41 0.43 0.46 0.45 0.46 0.46 0.45 0.47 0.51 0.57 0.61 0.56 0.53 0.56 0.59 0.64 0.73 0.81 0.85 0.86 0.88 0.87 0.89 0.94 0.98 0.95 0.89 0.84
0.31 0.32 0.32 0.32 0.34 0.35 0.34 0.31 0.30 0.31 0.32 0.34 0.36 0.37 0.39 0.44 0.50 0.50 0.46 0.45 0.46 0.47 0.46 0.49 0.53 0.57 0.57 0.55 0.55 0.59 0.64 0.72 0.86 0.98 0.99 0.95 0.91 0.91 0.91 0.96 1.01 0.98 0.92 0.87
0.38 0.39 0.39 0.41 0.42 0.41 0.40 0.38 0.37 0.36 0.36 0.36 0.35 0.36 0.39 0.44 0.50 0.53 0.50 0.47 0.48 0.50 0.50 0.53 0.55 0.57 0.56 0.57 0.59 0.64 0.69 0.77 0.89 0.97 0.94 0.90 0.90 0.92 0.94 0.96 0.96 0.96 0.94 0.90
0.42 0.41 0.41 0.42 0.43 0.44 0.46 0.47 0.47 0.48 0.49 0.48 0.45 0.42 0.44 0.48 0.51 0.52 0.49 0.48 0.49 0.50 0.52 0.56 0.58 0.58 0.58 0.61 0.66 0.69 0.72 0.76 0.89 0.99 0.98 0.94 0.93 0.94 0.93 0.94 0.95 0.97 0.97 0.94